• In Hungary
  • List of Countries
  • For 7 days
  • Water Temperature
  • Satellite Maps
  • Weather Map
  • News
  • Weather Widgets
  • user-avatar
    Login

    Hourly Weather Whitehaven

    Today, 23 July, Monday

    Time Temperature Precipitation Wind Pressure Humidity
    00:00 +18°C° 0 mm 3 mps 760 mmHg 97%
    01:00 +18°C° 0 mm 3 mps 760 mmHg 97%
    02:00 +18°C° 0 mm 3 mps 760 mmHg 97%
    03:00 +18°C° 0 mm 3 mps 760 mmHg 98%
    04:00 +18°C° 0.3 mm 3 mps 760 mmHg 97%
    05:00 +19°C° 0.3 mm 3 mps 760 mmHg 97%
    06:00 +19°C° 0.3 mm 3 mps 760 mmHg 96%
    07:00 +19°C° 0.4 mm 3 mps 760 mmHg 95%
    08:00 +19°C° 0.4 mm 3 mps 760 mmHg 94%
    09:00 +20°C° 0.4 mm 4 mps 760 mmHg 93%
    10:00 +20°C° 0.1 mm 3 mps 760 mmHg 92%
    11:00 +20°C° 0.1 mm 3 mps 759 mmHg 91%
    12:00 +20°C° 0.1 mm 3 mps 759 mmHg 90%
    13:00 +20°C° 0.1 mm 3 mps 759 mmHg 87%
    14:00 +21°C° 0.1 mm 4 mps 759 mmHg 84%
    15:00 +22°C° 0.1 mm 4 mps 759 mmHg 82%
    16:00 +21°C° 0.1 mm 4 mps 759 mmHg 83%
    17:00 +21°C° 0.1 mm 4 mps 759 mmHg 84%
    18:00 +21°C° 0.1 mm 4 mps 759 mmHg 85%
    19:00 +20°C° 0.2 mm 4 mps 759 mmHg 89%
    20:00 +19°C° 0.2 mm 4 mps 759 mmHg 92%
    21:00 +18°C° 0.2 mm 3 mps 759 mmHg 96%
    22:00 +18°C° 0.1 mm 3 mps 759 mmHg 97%
    23:00 +18°C° 0.1 mm 3 mps 759 mmHg 97%

    Tomorrow, 24 July, Tuesday

    Time Temperature Precipitation Wind Pressure Humidity
    00:00 +18°C° 0.1 mm 3 mps 759 mmHg 97%
    01:00 +18°C° 0.1 mm 3 mps 759 mmHg 97%
    02:00 +18°C° 0.1 mm 3 mps 759 mmHg 98%
    03:00 +17°C° 0.1 mm 2 mps 759 mmHg 98%
    04:00 +17°C° 0.1 mm 2 mps 759 mmHg 97%
    05:00 +17°C° 0.1 mm 2 mps 759 mmHg 97%
    06:00 +17°C° 0.1 mm 2 mps 759 mmHg 96%
    07:00 +18°C° 0.1 mm 2 mps 759 mmHg 93%
    08:00 +18°C° 0.1 mm 2 mps 759 mmHg 89%
    09:00 +19°C° 0.1 mm 2 mps 759 mmHg 86%
    10:00 +20°C° 0.1 mm 2 mps 759 mmHg 81%
    11:00 +20°C° 0.1 mm 3 mps 759 mmHg 76%
    12:00 +21°C° 0.1 mm 3 mps 759 mmHg 72%
    13:00 +21°C° 0 mm 3 mps 759 mmHg 71%
    14:00 +21°C° 0 mm 4 mps 759 mmHg 70%
    15:00 +21°C° 0 mm 4 mps 759 mmHg 69%
    16:00 +20°C° 0 mm 4 mps 759 mmHg 70%
    17:00 +20°C° 0 mm 4 mps 759 mmHg 71%
    18:00 +19°C° 0 mm 3 mps 760 mmHg 72%
    19:00 +18°C° 0 mm 3 mps 760 mmHg 77%
    20:00 +16°C° 0 mm 2 mps 760 mmHg 82%
    21:00 +14°C° 0 mm 1 mps 760 mmHg 88%
    22:00 +14°C° 0 mm 1 mps 761 mmHg 88%
    23:00 +13°C° 0 mm 1 mps 761 mmHg 89%

    Day after tomorrow, 25 July, Wednesday

    Time Temperature Precipitation Wind Pressure Humidity
    00:00 +12°C° 0 mm 1 mps 761 mmHg 90%
    01:00 +12°C° 0 mm 1 mps 761 mmHg 90%
    02:00 +12°C° 0 mm 1 mps 761 mmHg 90%
    03:00 +12°C° 0 mm 1 mps 761 mmHg 91%
    04:00 +13°C° 0 mm 1 mps 761 mmHg 89%
    05:00 +13°C° 0 mm 1 mps 761 mmHg 88%
    06:00 +14°C° 0 mm 1 mps 762 mmHg 86%
    07:00 +16°C° 0 mm 1 mps 762 mmHg 80%
    08:00 +18°C° 0 mm 1 mps 762 mmHg 74%
    09:00 +19°C° 0 mm 1 mps 762 mmHg 68%
    10:00 +19°C° 0 mm 2 mps 762 mmHg 65%
    11:00 +20°C° 0 mm 2 mps 762 mmHg 63%
    12:00 +20°C° 0 mm 2 mps 762 mmHg 60%
    13:00 +21°C° 0 mm 2 mps 762 mmHg 60%
    14:00 +21°C° 0 mm 2 mps 762 mmHg 60%
    15:00 +21°C° 0 mm 2 mps 762 mmHg 59%
    16:00 +20°C° 0 mm 2 mps 762 mmHg 61%
    17:00 +20°C° 0 mm 2 mps 762 mmHg 63%
    18:00 +21°C° 0 mm 1 mps 762 mmHg 65%
    19:00 +19°C° 0 mm 1 mps 762 mmHg 71%
    20:00 +16°C° 0 mm 2 mps 762 mmHg 77%
    21:00 +15°C° 0 mm 2 mps 762 mmHg 83%
    22:00 +14°C° 0 mm 2 mps 762 mmHg 84%
    23:00 +13°C° 0 mm 3 mps 762 mmHg 86%

    26 July, Thursday

    Time Temperature Precipitation Wind Pressure Humidity
    00:00 +13°C° 0 mm 3 mps 762 mmHg 87%
    01:00 +13°C° 0 mm 3 mps 761 mmHg 87%
    02:00 +14°C° 0 mm 3 mps 761 mmHg 87%
    03:00 +14°C° 0 mm 4 mps 761 mmHg 88%
    04:00 +15°C° 0 mm 4 mps 761 mmHg 87%
    05:00 +15°C° 0 mm 4 mps 760 mmHg 87%
    06:00 +17°C° 0 mm 4 mps 760 mmHg 86%
    07:00 +18°C° 0 mm 4 mps 760 mmHg 84%
    08:00 +20°C° 0 mm 4 mps 760 mmHg 82%
    09:00 +21°C° 0 mm 4 mps 760 mmHg 80%
    10:00 +22°C° 0.1 mm 4 mps 760 mmHg 77%
    11:00 +23°C° 0.1 mm 4 mps 760 mmHg 74%
    12:00 +23°C° 0.1 mm 4 mps 760 mmHg 71%
    13:00 +25°C° 0 mm 4 mps 759 mmHg 69%
    14:00 +25°C° 0 mm 3 mps 759 mmHg 67%
    15:00 +25°C° 0 mm 3 mps 759 mmHg 65%
    16:00 +25°C° 0 mm 3 mps 759 mmHg 67%
    17:00 +25°C° 0 mm 3 mps 758 mmHg 69%
    18:00 +24°C° 0 mm 2 mps 758 mmHg 71%
    19:00 +23°C° 0 mm 2 mps 758 mmHg 76%
    20:00 +20°C° 0 mm 2 mps 758 mmHg 81%
    21:00 +18°C° 0 mm 2 mps 758 mmHg 87%
    22:00 +17°C° 0 mm 2 mps 758 mmHg 88%
    23:00 +17°C° 0 mm 2 mps 758 mmHg 89%

    27 July, Friday

    Time Temperature Precipitation Wind Pressure Humidity
    00:00 +17°C° 0 mm 2 mps 757 mmHg 90%
    01:00 +17°C° 0 mm 3 mps 757 mmHg 91%
    02:00 +16°C° 0 mm 3 mps 757 mmHg 91%
    03:00 +16°C° 0 mm 3 mps 757 mmHg 92%
    04:00 +17°C° 0 mm 3 mps 757 mmHg 92%
    05:00 +17°C° 0 mm 4 mps 757 mmHg 91%
    06:00 +18°C° 0 mm 4 mps 757 mmHg 91%
    07:00 +19°C° 0.2 mm 4 mps 757 mmHg 88%
    08:00 +20°C° 0.2 mm 5 mps 757 mmHg 85%
    09:00 +20°C° 0.2 mm 5 mps 757 mmHg 81%
    10:00 +20°C° 0.2 mm 5 mps 757 mmHg 83%
    11:00 +20°C° 0.2 mm 4 mps 757 mmHg 85%
    12:00 +20°C° 0.2 mm 4 mps 757 mmHg 87%
    13:00 +20°C° 0.1 mm 4 mps 757 mmHg 81%
    14:00 +21°C° 0.1 mm 4 mps 757 mmHg 75%
    15:00 +21°C° 0.1 mm 4 mps 757 mmHg 69%
    16:00 +20°C° 0 mm 4 mps 757 mmHg 71%
    17:00 +20°C° 0 mm 4 mps 757 mmHg 73%
    18:00 +19°C° 0 mm 4 mps 757 mmHg 74%
    19:00 +18°C° 0 mm 4 mps 758 mmHg 81%
    20:00 +17°C° 0 mm 4 mps 758 mmHg 87%
    21:00 +16°C° 0 mm 3 mps 758 mmHg 94%
    22:00 +14°C° 0 mm 3 mps 759 mmHg 93%
    23:00 +14°C° 0 mm 3 mps 759 mmHg 93%

    28 July, Saturday

    Time Temperature Precipitation Wind Pressure Humidity
    00:00 +13°C° 0 mm 3 mps 759 mmHg 93%
    01:00 +13°C° 0 mm 3 mps 759 mmHg 92%
    02:00 +12°C° 0 mm 3 mps 760 mmHg 91%
    03:00 +12°C° 0 mm 3 mps 760 mmHg 91%
    04:00 +12°C° 0 mm 3 mps 760 mmHg 90%
    05:00 +13°C° 0 mm 3 mps 760 mmHg 88%
    06:00 +14°C° 0 mm 2 mps 761 mmHg 87%
    07:00 +15°C° 0 mm 2 mps 761 mmHg 80%
    08:00 +16°C° 0 mm 3 mps 761 mmHg 72%
    09:00 +18°C° 0 mm 3 mps 762 mmHg 65%
    10:00 +18°C° 0 mm 3 mps 762 mmHg 62%
    11:00 +19°C° 0 mm 3 mps 762 mmHg 60%
    12:00 +19°C° 0 mm 4 mps 762 mmHg 57%
    13:00 +20°C° 0 mm 4 mps 762 mmHg 57%
    14:00 +20°C° 0 mm 3 mps 762 mmHg 57%
    15:00 +20°C° 0 mm 3 mps 762 mmHg 57%
    16:00 +19°C° 0 mm 3 mps 762 mmHg 59%
    17:00 +19°C° 0 mm 3 mps 762 mmHg 61%
    18:00 +18°C° 0 mm 3 mps 762 mmHg 64%
    19:00 +17°C° 0 mm 3 mps 762 mmHg 70%
    20:00 +14°C° 0 mm 3 mps 762 mmHg 75%
    21:00 +12°C° 0 mm 3 mps 763 mmHg 81%
    22:00 +12°C° 0 mm 3 mps 762 mmHg 81%
    23:00 +12°C° 0 mm 3 mps 762 mmHg 80%
    Show more